Location: Bullfrog
(37.5121°N, 110.7330°W)
Time: 13:18:34
(UTC-07:00)

Hubble Space Telescope - Pass Details

Date: 24 January 2026
Orbit: 478 x 480 km, 28.5° (Epoch: 5 February)

Event Time Altitude Azimuth Distance (km) Brightness Sun altitude
Rises 19:16:00 0° 234° (SW) 2,508 5.3 -19.3°
Reaches altitude 10° 19:18:43 10° 214° (SSW) 1,633 3.8 -19.9°
Maximum altitude 19:21:16 17° 171° (S) 1,245 2.6 -20.4°
Enters shadow 19:21:37 17° 163° (SSE) 1,254 2.5 -20.4°
